Temp
-5 -5 -5 -5 -5 -5 -5 -5 -5 -5 -5 -5 -5 -5 -5 -5 -5 -5 -5 -5 -5 -5 -5 -5 -5 -5 -5 -5 -5 -5 -6 -6 -6 -6 -6 -6 -6 -6 -6 -6 -6 -6
-5 -5 -5 -5 -5 -5 -5 -5 -5 -5 -5 -5 -5 -5 -5 -5 -5 -5 -5 -5 -5 -5 -5 -5 -5 -5 -5 -5 -5 -5 -6 -6 -6 -6 -6 -6 -6 -6 -6 -6 -6 -6
-5 -5 -5 -5 -5 -5 -5 -5 -5 -5 -5 -5 -5 -5 -6 -6 -6 -5 -5 -5 -5 -5 -5 -5 -5 -5 -5 -5 -5 -5 -5 -5 -6 -6 -6 -6 -6 -6 -6 -6 -6 -6
-5 -5 -5 -5 -5 -5 -5 -5 -5 -5 -5 -5 -5 -5 -5 -5 -5 -5 -5 -5 -5 -5 -5 -5 -5 -5 -5 -5 -5 -5 -5 -5 -5 -6 -6 -6 -6 -6 -6 -6 -6 -6
-5 -4 -5 -5 -5 -5 -5 -5 -5 -5 -5 -5 -5 -5 -5 -5 -5 -5 -5 -5 -5 -5 -5 -5 -5 -5 -5 -5 -5 -5 -5 -5 -5 -5 -5 -6 -6 -6 -6 -6 -6 -6
-5 -4 -4 -5 -5 -5 -5 -5 -5 -5 -5 -5 -5 -5 -5 -5 -5 -5 -5 -5 -5 -5 -5 -5 -5 -5 -5 -5 -5 -4 -4 -4 -5 -5 -5 -5 -5 -6 -6 -6 -6 -6
-5 -4 -4 -4 -5 -5 -5 -5 -5 -5 -5 -5 -5 -5 -5 -5 -5 -5 -5 -5 -5 -5 -5 -5 -5 -5 -5 -5 -4 -4 -4 -4 -4 -4 -4 -5 -5 -5 -5 -5 -6 -6
-5 -4 -4 -4 -4 -5 -5 -5 -5 -5 -5 -5 -5 -5 -5 -5 -5 -5 -5 -5 -5 -5 -5 -5 -5 -5 -5 -5 -5 -4 -4 -4 -4 -4 -4 -4 -4 -5 -5 -5 -5 -5
-5 -5 -4 -4 -4 -4 -4 -5 -5 -5 -5 -5 -5 -5 -5 -5 -5 -5 -5 -5 -5 -5 -5 -5 -5 -5 -5 -5 -5 -5 -4 -4 -4 -4 -4 -4 -4 -4 -4 -4 -5 -5
-5 -5 -5 -5 -4 -4 -4 -4 -4 -5 -5 -5 -5 -5 -5 -4 -4 -4 -5 -4 -4 -4 -4 -4 -4 -4 -4 -4 -4 -4 -4 -4 -4 -4 -4 -4 -4 -4 -4 -4 -4 -4
-5 -5 -5 -5 -5 -5 -4 -4 -4 -4 -5 -5 -5 -5 -5 -5 -4 -4 -4 -4 -4 -4 -4 -4 -4 -4 -4 -4 -4 -4 -4 -4 -4 -4 -4 -4 -4 -4 -4 -4 -4 -4
-5 -5 -5 -5 -5 -5 -5 -4 -4 -4 -4 -4 -5 -5 -5 -5 -5 -4 -4 -4 -4 -4 -4 -4 -4 -4 -4 -4 -4 -4 -4 -4 -4 -4 -4 -4 -4 -4 -4 -4 -4 -4
-5 -5 -5 -5 -5 -5 -5 -5 -5 -5 -4 -4 -4 -5 -5 -5 -5 -5 -4 -4 -4 -4 -4 -4 -4 -4 -4 -4 -4 -4 -4 -4 -4 -4 -4 -4 -4 -4 -4 -4 -4 -4
-5 -5 -5 -6 -5 -5 -5 -5 -5 -5 -5 -5 -5 -5 -5 -5 -5 -5 -5 -4 -4 -4 -4 -4 -4 -4 -4 -4 -4 -4 -4 -4 -4 -4 -4 -4 -4 -4 -4 -4 -4 -4
-5 -5 -5 -6 -6 -5 -5 -5 -5 -5 -5 -6 -5 -5 -5 -5 -5 -5 -5 -5 -4 -4 -5 -5 -5 -5 -4 -4 -4 -4 -4 -4 -4 -4 -4 -4 -4 -4 -4 -4 -4 -4
-6 -5 -5 -6 -6 -6 -6 -5 -5 -5 -5 -5 -5 -5 -5 -5 -5 -5 -5 -5 -5 -5 -5 -5 -5 -5 -5 -5 -5 -4 -4 -4 -4 -4 -4 -4 -4 -4 -4 -4 -4 -4
-6 -5 -5 -5 -6 -6 -6 -6 -5 -5 -5 -5 -4 -5 -5 -5 -5 -5 -5 -5 -5 -5 -5 -5 -5 -5 -5 -5 -5 -5 -5 -5 -4 -4 -4 -4 -4 -4 -4 -4 -4 -4
-6 -6 -5 -5 -6 -6 -6 -6 -6 -5 -5 -4 -4 -4 -5 -5 -5 -5 -5 -5 -5 -5 -5 -6 -6 -6 -6 -5 -5 -5 -5 -5 -5 -5 -5 -5 -4 -4 -4 -5 -5 -5
-7 -6 -6 -6 -6 -6 -6 -6 -6 -6 -5 -5 -5 -5 -5 -5 -5 -5 -5 -6 -6 -6 -6 -6 -6 -6 -6 -6 -6 -6 -5 -5 -5 -5 -5 -5 -5 -5 -5 -5 -5 -5
-7 -6 -6 -6 -6 -6 -6 -7 -7 -6 -6 -6 -6 -6 -6 -6 -6 -6 -6 -6 -6 -6 -6 -7 -7 -6 -6 -6 -6 -6 -5 -5 -5 -5 -5 -5 -5 -5 -5 -5 -5 -5
-7 -7 -7 -7 -6 -6 -6 -6 -6 -6 -6 -6 -6 -6 -6 -6 -6 -6 -6 -6 -6 -6 -6 -7 -7 -7 -7 -6 -6 -6 -5 -5 -5 -5 -5 -5 -5 -5 -5 -5 -5 -5
-7 -7 -7 -7 -7 -6 -6 -6 -7 -7 -7 -6 -6 -6 -6 -6 -6 -6 -6 -6 -6 -6 -5 -6 -6 -7 -7 -7 -6 -6 -5 -5 -5 -5 -5 -5 -5 -5 -5 -5 -4 -4
-7 -7 -7 -7 -7 -7 -6 -6 -7 -7 -7 -6 -6 -6 -6 -6 -6 -6 -6 -6 -6 -6 -6 -6 -6 -6 -6 -6 -6 -6 -6 -5 -5 -4 -4 -5 -5 -5 -5 -5 -4 -4
-7 -7 -7 -7 -7 -7 -7 -6 -7 -7 -7 -7 -6 -6 -6 -6 -6 -6 -6 -6 -6 -6 -6 -6 -6 -5 -5 -6 -6 -6 -6 -6 -5 -5 -5 -5 -5 -5 -5 -5 -5 -4
-8 -7 -7 -7 -7 -7 -7 -7 -7 -7 -7 -7 -7 -7 -7 -7 -6 -6 -6 -6 -6 -7 -7 -6 -6 -6 -6 -6 -6 -6 -6 -6 -6 -6 -6 -5 -5 -5 -5 -5 -5 -5
-8 -8 -8 -8 -8 -7 -7 -7 -7 -7 -7 -7 -7 -7 -7 -7 -7 -6 -6 -6 -6 -6 -6 -6 -6 -7 -6 -6 -7 -7 -6 -6 -6 -6 -6 -6 -5 -5 -5 -5 -5 -6
Height
5956 5957 5959 5960 5961 5963 5964 5965 5966 5967 5968 5968 5969 5970 5971 5972 5973 5974 5975 5976 5977 5978 5979 5979 5980 5981 5981 5982 5982 5982 5983 5983 5983 5983 5984 5984 5984 5984 5984 5985 5985 5985
5956 5957 5958 5960 5961 5962 5963 5964 5965 5966 5967 5968 5969 5970 5971 5972 5973 5974 5975 5976 5977 5978 5979 5979 5980 5981 5981 5982 5982 5982 5983 5983 5983 5984 5984 5984 5984 5984 5985 5985 5985 5985
5955 5957 5958 5959 5960 5961 5963 5964 5965 5966 5967 5968 5969 5969 5971 5972 5973 5974 5975 5976 5977 5978 5979 5979 5980 5981 5981 5982 5982 5983 5983 5983 5984 5984 5984 5984 5984 5985 5985 5985 5985 5985
5955 5956 5957 5959 5960 5961 5962 5963 5964 5965 5966 5967 5968 5969 5970 5971 5972 5973 5974 5975 5976 5977 5978 5979 5980 5980 5981 5981 5982 5982 5983 5983 5984 5984 5984 5984 5984 5984 5985 5985 5985 5985
5954 5956 5957 5958 5960 5961 5962 5963 5963 5964 5965 5966 5968 5968 5969 5970 5971 5972 5974 5975 5976 5976 5977 5978 5979 5980 5981 5981 5982 5982 5983 5983 5983 5984 5984 5984 5984 5984 5985 5985 5985 5985
5953 5955 5957 5958 5959 5960 5961 5962 5963 5964 5965 5965 5966 5967 5968 5969 5970 5972 5973 5974 5975 5976 5977 5978 5978 5979 5980 5981 5981 5982 5982 5983 5983 5983 5983 5984 5984 5984 5984 5984 5984 5984
5951 5954 5956 5957 5958 5959 5960 5962 5963 5964 5964 5965 5966 5966 5967 5968 5970 5971 5972 5973 5974 5975 5976 5977 5978 5978 5979 5980 5981 5981 5982 5982 5983 5983 5983 5983 5983 5984 5984 5984 5984 5984
5949 5951 5954 5955 5957 5958 5959 5961 5962 5963 5964 5964 5965 5965 5966 5967 5969 5970 5971 5972 5973 5974 5975 5976 5977 5978 5978 5979 5980 5981 5981 5982 5982 5983 5983 5983 5983 5983 5984 5984 5984 5984
5947 5949 5951 5953 5954 5956 5957 5959 5960 5962 5963 5964 5964 5965 5965 5966 5967 5969 5970 5971 5972 5973 5974 5975 5976 5977 5977 5978 5979 5980 5980 5981 5982 5982 5983 5983 5983 5983 5983 5983 5983 5983
5945 5947 5949 5951 5952 5953 5955 5957 5958 5960 5962 5963 5963 5964 5965 5965 5966 5967 5968 5970 5971 5972 5973 5974 5974 5975 5976 5977 5978 5979 5979 5980 5981 5981 5982 5982 5983 5983 5983 5983 5983 5983
5943 5945 5946 5948 5950 5951 5953 5955 5957 5959 5960 5962 5963 5963 5964 5964 5965 5965 5966 5967 5969 5970 5971 5972 5973 5974 5975 5976 5976 5977 5978 5979 5980 5980 5981 5981 5982 5982 5983 5983 5983 5983
5942 5943 5945 5947 5949 5950 5952 5954 5956 5958 5959 5961 5962 5963 5963 5963 5964 5964 5965 5966 5967 5968 5969 5970 5972 5973 5974 5975 5975 5976 5977 5978 5978 5979 5980 5980 5981 5981 5982 5982 5982 5982
5939 5941 5943 5945 5947 5949 5950 5952 5954 5957 5959 5960 5961 5962 5962 5963 5963 5963 5963 5964 5965 5966 5967 5969 5970 5971 5972 5973 5974 5975 5976 5976 5977 5978 5978 5979 5979 5980 5981 5981 5981 5982
5936 5938 5940 5942 5944 5946 5947 5948 5949 5952 5954 5957 5959 5960 5961 5962 5962 5962 5962 5963 5964 5965 5966 5967 5968 5969 5970 5971 5972 5973 5974 5975 5975 5976 5977 5977 5978 5978 5979 5979 5980 5980
5933 5934 5936 5938 5940 5942 5944 5944 5944 5945 5947 5951 5954 5957 5959 5960 5961 5961 5961 5961 5962 5963 5964 5965 5966 5967 5968 5969 5970 5971 5972 5973 5973 5974 5975 5975 5976 5976 5977 5977 5978 5978
5931 5932 5933 5935 5936 5937 5938 5940 5941 5941 5942 5943 5947 5951 5955 5957 5958 5959 5960 5960 5960 5961 5962 5963 5964 5964 5965 5966 5967 5969 5970 5970 5971 5972 5972 5973 5974 5974 5975 5975 5975 5976
5927 5929 5930 5931 5932 5933 5934 5936 5938 5938 5939 5940 5943 5948 5952 5956 5958 5958 5958 5959 5959 5959 5960 5960 5961 5962 5962 5964 5965 5966 5967 5968 5969 5970 5970 5971 5971 5972 5972 5973 5973 5973
5924 5925 5927 5928 5929 5930 5931 5933 5935 5937 5940 5943 5946 5950 5953 5955 5958 5959 5958 5958 5958 5958 5958 5958 5959 5959 5959 5960 5962 5963 5964 5965 5966 5967 5968 5968 5969 5969 5970 5970 5971 5971
5920 5922 5923 5924 5925 5927 5929 5930 5932 5935 5941 5945 5948 5950 5951 5953 5955 5955 5956 5956 5956 5956 5956 5956 5956 5957 5957 5958 5958 5959 5961 5962 5963 5964 5965 5966 5966 5967 5967 5968 5968 5969
5917 5918 5920 5921 5922 5923 5925 5927 5929 5932 5936 5941 5944 5944 5944 5945 5947 5949 5950 5950 5951 5952 5953 5953 5953 5954 5954 5955 5955 5956 5957 5959 5960 5961 5963 5963 5964 5964 5965 5965 5965 5966
5915 5916 5918 5919 5920 5921 5922 5924 5926 5928 5932 5936 5938 5937 5936 5937 5940 5942 5944 5945 5947 5948 5950 5951 5951 5951 5952 5952 5953 5953 5954 5956 5958 5959 5960 5961 5961 5962 5962 5962 5962 5963
5913 5914 5915 5917 5918 5919 5920 5922 5923 5925 5928 5931 5934 5934 5933 5934 5935 5937 5939 5941 5944 5945 5947 5948 5949 5948 5948 5949 5950 5950 5951 5953 5955 5957 5958 5959 5959 5960 5960 5960 5960 5960
5909 5911 5913 5914 5916 5916 5917 5919 5920 5922 5925 5927 5929 5930 5930 5930 5932 5933 5936 5938 5940 5941 5943 5943 5943 5943 5944 5946 5947 5947 5949 5950 5952 5954 5956 5957 5958 5958 5958 5958 5958 5958
5905 5907 5909 5911 5912 5913 5914 5916 5918 5920 5921 5922 5924 5925 5925 5925 5927 5930 5932 5935 5936 5936 5936 5936 5936 5939 5943 5945 5947 5947 5947 5948 5949 5951 5953 5955 5956 5956 5956 5956 5956 5956
5901 5903 5905 5907 5909 5910 5911 5913 5914 5916 5917 5918 5919 5920 5920 5920 5922 5925 5928 5930 5931 5931 5929 5930 5934 5940 5944 5945 5945 5944 5944 5944 5944 5945 5947 5949 5950 5951 5952 5953 5954 5954
5897 5898 5900 5902 5904 5906 5908 5909 5910 5912 5913 5914 5915 5916 5916 5917 5918 5920 5922 5924 5925 5925 5925 5929 5935 5939 5939 5937 5936 5936 5936 5937 5938 5939 5941 5942 5944 5945 5947 5949 5950 5951
Wind_Speed
14 13 12 11 10 11 11 11 11 10 9 8 7 7 6 6 6 6 6 5 5 5 6 6 6 5 5 5 5 5 5 5 5 4 4 4 4 4 3 3 3 3
15 14 13 12 12 12 12 12 12 10 9 8 7 7 7 6 6 6 6 5 4 4 4 4 4 4 3 3 3 3 4 4 4 3 3 3 3 3 3 3 3 3
15 15 15 14 13 12 12 13 12 11 9 8 7 7 7 7 6 6 5 5 4 4 3 3 3 3 3 3 2 2 2 3 3 3 3 2 2 2 2 2 3 2
16 16 16 15 14 13 13 13 13 12 10 8 7 7 7 8 7 7 6 5 4 3 3 3 3 4 4 3 3 3 3 2 2 3 3 3 3 2 1 1 1 2
16 16 16 16 15 15 14 14 14 13 11 9 8 8 7 7 7 7 6 5 4 3 3 3 3 4 4 4 4 4 3 2 3 3 3 3 3 3 3 3 2 2
15 15 16 16 16 16 16 16 15 14 13 11 10 9 8 7 6 6 5 5 4 3 3 3 4 4 4 4 5 4 4 3 3 3 3 3 3 4 4 4 4 3
15 15 15 16 17 17 17 17 17 16 15 13 12 11 10 9 7 6 5 5 4 4 3 4 4 5 5 5 6 5 5 4 3 3 3 3 3 3 4 4 4 4
16 16 16 17 17 18 18 18 18 18 17 16 14 13 12 10 9 8 6 6 5 4 4 4 5 5 6 6 7 6 6 6 5 4 3 3 3 3 3 3 3 4
17 16 17 17 18 19 19 19 19 19 18 18 17 15 13 12 10 9 8 6 5 5 4 4 4 5 6 6 7 7 7 7 7 6 5 3 3 2 2 2 2 3
18 18 18 18 19 20 20 20 20 20 20 19 18 17 15 14 12 11 9 7 6 5 4 3 3 4 5 6 7 7 8 8 8 7 7 6 4 3 3 2 2 2
19 20 20 20 20 20 21 21 21 20 20 20 19 18 17 15 14 12 11 9 7 6 4 3 3 3 4 5 6 7 8 8 9 9 9 8 7 6 4 4 3 3
20 20 21 21 21 21 20 20 20 21 21 21 21 20 19 17 15 14 12 11 9 7 5 4 3 3 3 4 5 6 7 8 9 9 10 10 10 9 8 6 5 5
22 21 21 23 23 22 20 19 18 19 20 21 22 21 20 19 17 15 14 12 10 8 7 6 5 4 3 3 4 5 6 7 8 9 10 10 11 11 11 10 8 7
25 24 22 23 24 24 23 21 20 19 19 21 22 22 22 21 19 17 15 13 12 10 9 7 6 6 5 4 4 4 5 6 7 8 9 10 11 11 12 12 12 10
27 28 23 23 25 26 26 25 24 23 21 21 22 23 23 22 21 19 17 15 13 12 11 10 9 8 7 6 5 5 5 5 6 7 8 9 10 11 11 13 14 14
30 30 25 25 26 28 29 28 27 26 25 24 23 24 24 24 23 21 19 17 16 14 13 12 11 10 10 9 8 7 7 7 7 7 7 8 9 10 11 12 13 14
31 29 27 27 28 29 30 30 30 30 29 28 26 24 24 24 23 22 20 19 18 16 15 14 13 13 13 12 11 10 10 9 8 8 8 9 9 10 11 11 12 13
29 28 28 27 28 29 30 31 32 32 30 27 23 21 21 22 22 22 21 20 19 18 17 16 16 16 15 15 14 13 13 12 10 10 9 10 10 11 11 12 12 13
29 28 28 28 28 29 29 29 30 31 29 25 20 18 20 20 21 22 22 21 21 20 19 18 18 18 17 17 17 17 16 14 13 12 11 11 11 11 12 13 13 14
29 30 31 30 30 30 30 29 28 28 28 25 21 21 23 24 24 25 25 25 24 22 21 21 20 20 19 19 19 20 19 18 16 15 14 14 14 14 14 14 15 15
27 30 32 33 32 31 31 30 29 29 29 27 25 26 28 29 30 29 28 28 27 26 24 22 21 22 22 21 21 22 22 21 19 18 17 17 16 16 17 17 17 17
27 28 29 31 33 33 31 29 29 31 31 30 29 30 30 30 31 32 30 28 28 28 26 25 24 23 23 23 23 24 24 23 21 20 20 19 19 19 19 20 20 20
28 28 26 26 29 31 32 30 30 32 33 32 32 33 32 31 32 33 32 29 27 28 27 27 27 28 26 24 24 25 25 25 24 23 22 21 21 22 22 22 22 22
29 29 28 26 26 28 31 33 34 34 34 34 34 34 34 34 33 34 33 31 29 28 28 30 31 30 26 24 24 25 25 25 25 25 24 23 23 23 24 24 24 24
30 29 29 28 28 29 30 33 35 36 36 35 34 34 36 37 36 35 34 34 33 32 32 32 29 24 22 23 25 26 26 27 27 27 26 25 25 25 25 25 25 25
33 31 30 30 30 31 32 32 33 34 36 36 34 34 36 38 38 37 35 35 35 36 36 32 26 22 23 26 28 29 29 30 30 30 29 28 29 28 27 27 26 26
Wind_Direction
191 188 185 181 177 174 170 167 166 162 161 160 155 151 147 148 149 143 139 142 145 142 141 143 144 143 137 132 131 126 120 115 110 107 104 99 95 88 83 81 79 84
192 191 190 188 185 180 175 172 173 172 171 169 167 164 159 158 158 153 152 159 165 162 165 170 167 165 162 155 154 145 139 136 131 127 120 112 105 93 86 80 78 81
196 193 193 193 191 187 181 177 178 178 178 178 176 173 165 159 158 155 155 161 168 172 185 200 201 202 202 196 196 191 178 169 164 165 160 152 140 121 105 94 90 84
201 197 197 197 195 193 189 185 183 184 186 186 184 180 171 163 158 156 156 159 165 174 190 213 223 226 227 226 228 232 228 222 221 219 210 203 196 178 182 187 125 117
209 203 200 200 200 199 196 193 192 192 192 191 190 189 184 175 166 160 161 165 171 182 196 220 237 242 243 241 241 244 245 251 259 258 247 233 226 221 220 225 214 183
218 212 206 204 205 205 202 200 200 200 199 199 198 197 195 191 183 174 171 175 182 195 208 223 239 246 250 250 250 250 251 255 266 278 279 265 249 241 234 230 229 222
221 220 215 210 210 210 209 206 205 205 205 206 206 205 203 200 197 193 190 189 193 203 212 223 234 242 247 251 252 251 249 248 254 275 288 278 266 255 245 240 238 236
223 224 220 217 215 215 215 213 212 211 210 211 212 211 209 205 201 201 202 201 201 203 207 217 226 231 238 244 247 247 245 241 241 248 258 262 267 271 270 266 260 254
225 229 227 222 220 218 218 218 217 216 216 217 217 215 213 210 205 203 205 206 206 204 201 206 217 224 230 237 241 241 242 241 238 238 244 248 254 264 273 276 274 272
220 227 231 229 226 223 221 221 221 221 221 222 223 222 219 214 208 204 205 207 208 206 200 198 209 221 227 234 240 240 240 241 240 238 239 243 244 243 244 243 247 260
220 224 229 231 231 228 225 224 224 224 225 227 228 228 225 220 214 209 206 206 206 203 198 195 199 213 228 237 242 245 244 243 243 241 239 239 241 242 237 226 217 217
229 229 231 234 235 233 231 231 231 231 231 231 232 233 232 228 222 216 211 207 205 203 199 196 196 201 216 234 243 247 248 247 247 247 245 242 240 241 240 233 223 217
236 234 234 237 238 236 234 233 236 240 241 240 238 237 237 236 231 225 219 211 206 206 205 201 201 204 210 226 242 249 252 252 251 250 251 250 246 243 243 241 235 229
238 235 233 235 237 238 235 229 227 231 239 246 246 242 240 239 237 233 228 222 213 210 212 213 212 215 217 223 236 249 257 260 259 257 255 255 254 251 248 246 243 240
240 238 232 230 233 236 236 233 227 222 224 234 244 245 243 240 240 238 235 232 225 217 216 220 224 228 230 232 237 246 257 262 263 264 263 260 258 256 254 251 248 246
240 241 234 225 225 229 232 233 232 227 220 221 229 238 241 240 239 238 237 237 235 229 224 223 228 233 236 239 241 243 250 256 257 259 263 265 262 259 257 255 252 249
239 243 240 230 226 229 232 232 233 230 225 221 222 230 238 241 240 239 239 238 236 234 230 228 231 234 236 239 242 244 244 246 250 253 255 258 260 260 258 257 255 253
239 243 242 236 230 232 234 234 236 236 234 230 228 231 238 244 247 245 243 241 240 237 234 231 232 235 236 236 238 240 242 241 242 246 249 252 254 256 257 256 255 255
235 235 236 236 235 234 233 235 240 243 241 239 237 238 239 244 250 250 246 242 240 240 239 236 235 235 237 239 239 236 237 238 238 239 241 245 248 249 252 253 252 252
232 229 231 235 237 236 234 237 242 244 242 238 233 233 235 237 241 246 247 243 238 235 237 240 242 240 237 239 242 241 236 233 234 235 236 239 242 242 244 245 246 246
235 231 232 234 237 239 239 240 242 241 240 236 228 227 232 233 233 236 241 244 242 237 234 235 241 245 244 242 243 245 242 236 233 233 235 237 238 239 239 240 241 241
239 235 234 235 237 239 241 242 241 235 234 235 232 232 236 236 234 235 237 241 244 244 240 236 236 240 245 248 248 247 246 243 239 235 236 238 240 240 240 240 241 241
242 240 239 237 237 239 240 241 238 234 235 239 239 239 240 239 238 238 237 237 239 241 243 243 240 237 237 241 246 249 250 250 247 243 241 241 244 245 245 244 244 244
246 246 247 244 241 242 243 241 238 236 239 243 242 240 241 242 240 238 237 236 236 236 237 238 240 241 241 243 247 252 256 257 257 255 252 250 248 248 249 249 248 248
249 250 251 249 246 244 246 245 242 238 239 241 241 239 241 243 242 238 237 237 237 237 236 235 237 243 250 253 253 253 255 257 257 256 256 255 253 250 249 250 251 252
251 251 251 251 249 246 247 248 247 242 239 239 239 238 239 241 241 240 239 239 240 240 240 239 238 239 242 245 247 247 248 249 250 250 250 251 250 248 246 247 249 252